Time,TemperatureF,DewpointF,PressureIn,WindDirection,WindDirectionDegrees,WindSpeedMPH,WindSpeedGustMPH,Humidity,HourlyPrecipIn,Conditions,Clouds,dailyrainin,SoftwareType,DateUTC
2014-02-11 00:14:00,29.6,28.0,30.30,NE,36,0.0,-999.0,92,-99.99,,,0.00,weatherlink.com 1.10,2014-02-11 06:14:00,
2014-02-11 00:29:00,29.7,28.0,30.29,NE,52,0.0,-999.0,92,-99.99,,,0.00,weatherlink.com 1.10,2014-02-11 06:29:00,
2014-02-11 00:44:00,29.8,28.0,30.29,SE,126,0.0,-999.0,91,-99.99,,,0.00,weatherlink.com 1.10,2014-02-11 06:44:00,
2014-02-11 00:59:00,29.8,28.0,30.30,ENE,76,0.0,-999.0,91,-99.99,,,0.00,weatherlink.com 1.10,2014-02-11 06:59:00,
2014-02-11 01:14:00,29.8,28.0,30.29,ENE,65,0.0,-999.0,91,-99.99,,,0.00,weatherlink.com 1.10,2014-02-11 07:14:00,
2014-02-11 01:29:00,29.8,28.0,30.29,NE,46,2.0,-999.0,91,-99.99,,,0.00,weatherlink.com 1.10,2014-02-11 07:29:00,
2014-02-11 01:44:00,29.9,27.0,30.30,NE,46,0.0,-999.0,90,-99.99,,,0.00,weatherlink.com 1.10,2014-02-11 07:44:00,
2014-02-11 01:59:00,29.8,27.0,30.30,NNE,14,6.0,-999.0,90,-99.99,,,0.00,weatherlink.com 1.10,2014-02-11 07:59:00,
2014-02-11 02:14:00,29.9,27.0,30.29,ENE,69,0.0,-999.0,90,-99.99,,,0.00,weatherlink.com 1.10,2014-02-11 08:14:00,
2014-02-11 02:29:00,29.8,27.0,30.28,ESE,119,0.0,-999.0,89,-99.99,,,0.00,weatherlink.com 1.10,2014-02-11 08:29:00,
2014-02-11 02:44:00,29.8,27.0,30.28,East,86,3.0,-999.0,89,-99.99,,,0.00,weatherlink.com 1.10,2014-02-11 08:44:00,
2014-02-11 02:59:00,29.9,27.0,30.28,NNE,32,0.0,-999.0,89,-99.99,,,0.00,weatherlink.com 1.10,2014-02-11 08:59:00,
2014-02-11 03:14:00,29.9,27.0,30.30,NE,41,0.0,-999.0,88,-99.99,,,0.00,weatherlink.com 1.10,2014-02-11 09:14:00,
2014-02-11 03:29:00,29.9,27.0,30.30,WNW,301,0.0,-999.0,88,-99.99,,,0.00,weatherlink.com 1.10,2014-02-11 09:29:00,
2014-02-11 03:44:00,29.8,27.0,30.30,NE,55,0.0,-999.0,88,-99.99,,,0.00,weatherlink.com 1.10,2014-02-11 09:44:00,
2014-02-11 03:59:00,29.9,27.0,30.30,NE,54,0.0,-999.0,87,-99.99,,,0.00,weatherlink.com 1.10,2014-02-11 09:59:00,
2014-02-11 04:14:00,29.8,26.0,30.30,West,276,0.0,-999.0,87,-99.99,,,0.00,weatherlink.com 1.10,2014-02-11 10:14:00,
2014-02-11 04:29:00,29.7,26.0,30.31,WSW,241,0.0,-999.0,86,-99.99,,,0.00,weatherlink.com 1.10,2014-02-11 10:29:00,
2014-02-11 04:44:00,29.6,26.0,30.30,East,79,0.0,-999.0,86,-99.99,,,0.00,weatherlink.com 1.10,2014-02-11 10:44:00,
2014-02-11 04:59:00,29.4,26.0,30.30,NNE,17,0.0,-999.0,85,-99.99,,,0.00,weatherlink.com 1.10,2014-02-11 10:59:00,
2014-02-11 05:14:00,29.4,26.0,30.30,NE,34,3.0,-999.0,85,-99.99,,,0.00,weatherlink.com 1.10,2014-02-11 11:14:00,
2014-02-11 05:29:00,29.2,25.0,30.29,NNE,15,3.0,-999.0,85,-99.99,,,0.00,weatherlink.com 1.10,2014-02-11 11:29:00,
2014-02-11 05:44:00,29.1,25.0,30.29,NE,56,0.0,-999.0,85,-99.99,,,0.00,weatherlink.com 1.10,2014-02-11 11:44:00,
2014-02-11 05:59:00,29.0,25.0,30.29,NE,56,2.0,-999.0,85,-99.99,,,0.00,weatherlink.com 1.10,2014-02-11 11:59:00,
2014-02-11 06:14:00,28.6,24.0,30.30,NNE,24,4.0,-999.0,84,-99.99,,,0.00,weatherlink.com 1.10,2014-02-11 12:14:00,
2014-02-11 06:29:00,28.7,25.0,30.31,ENE,64,0.0,-999.0,84,-99.99,,,0.00,weatherlink.com 1.10,2014-02-11 12:29:00,
2014-02-11 06:44:00,28.6,24.0,30.32,NNE,18,0.0,-999.0,84,-99.99,,,0.00,weatherlink.com 1.10,2014-02-11 12:44:00,
2014-02-11 06:59:00,28.6,24.0,30.32,NE,36,3.0,-999.0,84,-99.99,,,0.00,weatherlink.com 1.10,2014-02-11 12:59:00,
2014-02-11 07:14:00,28.5,24.0,30.32,NE,45,0.0,-999.0,84,-99.99,,,0.00,weatherlink.com 1.10,2014-02-11 13:14:00,
2014-02-11 07:29:00,28.4,24.0,30.32,NE,46,5.0,-999.0,84,-99.99,,,0.00,weatherlink.com 1.10,2014-02-11 13:29:00,
2014-02-11 07:45:00,28.3,24.0,30.34,NE,51,0.0,-999.0,84,-99.99,,,0.00,weatherlink.com 1.10,2014-02-11 13:45:00,
2014-02-11 08:00:00,28.3,24.0,30.34,ENE,61,0.0,-999.0,84,-99.99,,,0.00,weatherlink.com 1.10,2014-02-11 14:00:00,
2014-02-11 08:15:00,28.3,24.0,30.35,ENE,65,0.0,-999.0,84,-99.99,,,0.00,weatherlink.com 1.10,2014-02-11 14:15:00,
2014-02-11 08:30:00,28.1,24.0,30.34,NNE,17,0.0,-999.0,83,-99.99,,,0.00,weatherlink.com 1.10,2014-02-11 14:30:00,
2014-02-11 08:45:00,28.1,24.0,30.35,NNE,32,0.0,-999.0,83,-99.99,,,0.00,weatherlink.com 1.10,2014-02-11 14:45:00,
2014-02-11 09:00:00,28.0,23.0,30.35,East,80,0.0,-999.0,82,-99.99,,,0.00,weatherlink.com 1.10,2014-02-11 15:00:00,
2014-02-11 09:15:00,28.0,23.0,30.35,ENE,69,3.0,-999.0,82,-99.99,,,0.00,weatherlink.com 1.10,2014-02-11 15:15:00,
2014-02-11 09:30:00,28.1,23.0,30.35,NNE,17,2.0,-999.0,81,-99.99,,,0.00,weatherlink.com 1.10,2014-02-11 15:30:00,
2014-02-11 09:45:00,28.1,23.0,30.35,ENE,69,0.0,-999.0,80,-99.99,,,0.00,weatherlink.com 1.10,2014-02-11 15:45:00,
2014-02-11 10:00:00,28.3,23.0,30.34,NNE,14,3.0,-999.0,80,-99.99,,,0.00,weatherlink.com 1.10,2014-02-11 16:00:00,
2014-02-11 10:15:00,28.8,23.0,30.33,East,99,1.0,-999.0,80,-99.99,,,0.00,weatherlink.com 1.10,2014-02-11 16:15:00,
2014-02-11 10:30:00,29.0,24.0,30.35,North,10,1.0,-999.0,80,-99.99,,,0.00,weatherlink.com 1.10,2014-02-11 16:30:00,
2014-02-11 10:45:00,29.5,24.0,30.34,NE,45,0.0,-999.0,79,-99.99,,,0.00,weatherlink.com 1.10,2014-02-11 16:45:00,
2014-02-11 11:00:00,29.7,24.0,30.34,East,99,0.0,-999.0,78,-99.99,,,0.00,weatherlink.com 1.10,2014-02-11 17:00:00,
2014-02-11 11:15:00,29.8,24.0,30.33,North,350,4.0,-999.0,78,-99.99,,,0.00,weatherlink.com 1.10,2014-02-11 17:15:00,
2014-02-11 11:30:00,29.9,24.0,30.32,NE,46,1.0,-999.0,78,-99.99,,,0.00,weatherlink.com 1.10,2014-02-11 17:30:00,
2014-02-11 11:45:00,30.1,24.0,30.31,NE,51,0.0,-999.0,79,-99.99,,,0.00,weatherlink.com 1.10,2014-02-11 17:45:00,
2014-02-11 12:00:00,30.3,25.0,30.30,NE,45,0.0,-999.0,79,-99.99,,,0.00,weatherlink.com 1.10,2014-02-11 18:00:00,
2014-02-11 12:15:00,30.2,25.0,30.30,NE,45,0.0,-999.0,81,-99.99,,,0.00,weatherlink.com 1.10,2014-02-11 18:15:00,
2014-02-11 12:30:00,30.4,26.0,30.31,NE,37,0.0,-999.0,82,-99.99,,,0.01,weatherlink.com 1.10,2014-02-11 18:30:00,
2014-02-11 12:45:00,30.6,26.0,30.29,NE,45,0.0,-999.0,82,-99.99,,,0.01,weatherlink.com 1.10,2014-02-11 18:45:00,
2014-02-11 13:00:00,30.4,26.0,30.28,NNE,28,0.0,-999.0,82,-99.99,,,0.01,weatherlink.com 1.10,2014-02-11 19:00:00,
2014-02-11 13:15:00,30.2,25.0,30.28,NE,54,0.0,-999.0,81,-99.99,,,0.01,weatherlink.com 1.10,2014-02-11 19:15:00,
2014-02-11 13:30:00,30.4,25.0,30.26,NNE,19,0.0,-999.0,81,-99.99,,,0.01,weatherlink.com 1.10,2014-02-11 19:30:00,
2014-02-11 13:45:00,30.9,25.0,30.25,SW,222,0.0,-999.0,80,-99.99,,,0.01,weatherlink.com 1.10,2014-02-11 19:45:00,
2014-02-11 14:00:00,31.6,26.0,30.26,SW,230,0.0,-999.0,80,-99.99,,,0.01,weatherlink.com 1.10,2014-02-11 20:00:00,
2014-02-11 14:15:00,32.8,27.0,30.26,WSW,249,0.0,-999.0,78,-99.99,,,0.01,weatherlink.com 1.10,2014-02-11 20:15:00,
2014-02-11 14:30:00,32.9,26.0,30.26,WNW,296,0.0,-999.0,77,-99.99,,,0.01,weatherlink.com 1.10,2014-02-11 20:30:00,
2014-02-11 14:45:00,33.4,27.0,30.25,WNW,284,0.0,-999.0,76,-99.99,,,0.01,weatherlink.com 1.10,2014-02-11 20:45:00,
2014-02-11 15:00:00,33.4,26.0,30.26,WNW,286,0.0,-999.0,75,-99.99,,,0.01,weatherlink.com 1.10,2014-02-11 21:00:00,
2014-02-11 15:15:00,33.6,26.0,30.25,WNW,288,0.0,-999.0,75,-99.99,,,0.01,weatherlink.com 1.10,2014-02-11 21:15:00,
2014-02-11 15:45:00,34.0,27.0,30.25,WNW,286,4.0,-999.0,74,-99.99,,,0.01,weatherlink.com 1.10,2014-02-11 21:45:00,
2014-02-11 16:00:00,34.1,26.0,30.24,NW,307,0.0,-999.0,73,-99.99,,,0.01,weatherlink.com 1.10,2014-02-11 22:00:00,
2014-02-11 16:15:00,34.2,26.0,30.24,ENE,65,0.0,-999.0,73,-99.99,,,0.01,weatherlink.com 1.10,2014-02-11 22:15:00,
2014-02-11 16:30:00,34.4,27.0,30.23,ENE,71,0.0,-999.0,73,-99.99,,,0.01,weatherlink.com 1.10,2014-02-11 22:30:00,
2014-02-11 16:45:00,34.4,27.0,30.24,ENE,61,0.0,-999.0,73,-99.99,,,0.01,weatherlink.com 1.10,2014-02-11 22:45:00,
2014-02-11 17:00:00,34.4,27.0,30.24,NE,51,0.0,-999.0,73,-99.99,,,0.01,weatherlink.com 1.10,2014-02-11 23:00:00,
2014-02-11 17:15:00,34.3,27.0,30.24,ENE,67,0.0,-999.0,75,-99.99,,,0.01,weatherlink.com 1.10,2014-02-11 23:15:00,
2014-02-11 17:30:00,34.1,28.0,30.24,ENE,67,0.0,-999.0,77,-99.99,,,0.01,weatherlink.com 1.10,2014-02-11 23:30:00,
2014-02-11 17:45:00,34.3,27.0,30.24,ENE,67,0.0,-999.0,76,-99.99,,,0.01,weatherlink.com 1.10,2014-02-11 23:45:00,
2014-02-11 18:00:00,34.4,27.0,30.24,ENE,68,0.0,-999.0,75,-99.99,,,0.01,weatherlink.com 1.10,2014-02-12 00:00:00,
2014-02-11 18:15:00,34.4,27.0,30.24,ENE,69,0.0,-999.0,74,-99.99,,,0.01,weatherlink.com 1.10,2014-02-12 00:15:00,
2014-02-11 18:30:00,34.5,27.0,30.25,ENE,67,0.0,-999.0,75,-99.99,,,0.01,weatherlink.com 1.10,2014-02-12 00:30:00,
2014-02-11 18:45:00,34.5,27.0,30.25,ENE,66,0.0,-999.0,75,-99.99,,,0.01,weatherlink.com 1.10,2014-02-12 00:45:00,
2014-02-11 19:00:00,34.4,28.0,30.26,NE,44,0.0,-999.0,76,-99.99,,,0.01,weatherlink.com 1.10,2014-02-12 01:00:00,
2014-02-11 19:15:00,34.3,28.0,30.26,WSW,256,0.0,-999.0,77,-99.99,,,0.01,weatherlink.com 1.10,2014-02-12 01:15:00,
2014-02-11 19:31:00,33.4,27.0,30.27,WNW,283,0.0,-999.0,78,-99.99,,,0.01,weatherlink.com 1.10,2014-02-12 01:31:00,
2014-02-11 19:46:00,32.8,27.0,30.28,NW,306,0.0,-999.0,79,-99.99,,,0.01,weatherlink.com 1.10,2014-02-12 01:46:00,
2014-02-11 20:01:00,32.5,27.0,30.28,East,81,0.0,-999.0,79,-99.99,,,0.01,weatherlink.com 1.10,2014-02-12 02:01:00,
2014-02-11 20:16:00,32.4,27.0,30.28,WSW,247,0.0,-999.0,79,-99.99,,,0.01,weatherlink.com 1.10,2014-02-12 02:16:00,
2014-02-11 20:31:00,32.4,27.0,30.28,WSW,252,0.0,-999.0,79,-99.99,,,0.01,weatherlink.com 1.10,2014-02-12 02:31:00,
2014-02-11 20:46:00,32.4,27.0,30.29,NE,36,0.0,-999.0,79,-99.99,,,0.01,weatherlink.com 1.10,2014-02-12 02:46:00,
2014-02-11 21:00:00,32.4,26.0,30.27,ENE,61,0.0,-999.0,78,-99.99,,,0.01,weatherlink.com 1.10,2014-02-12 03:00:00,
2014-02-11 21:15:00,32.5,27.0,30.27,ENE,60,0.0,-999.0,79,-99.99,,,0.01,weatherlink.com 1.10,2014-02-12 03:15:00,
2014-02-11 21:30:00,32.6,27.0,30.26,ENE,59,0.0,-999.0,79,-99.99,,,0.01,weatherlink.com 1.10,2014-02-12 03:30:00,
2014-02-11 21:45:00,32.6,26.0,30.25,NE,53,0.0,-999.0,77,-99.99,,,0.01,weatherlink.com 1.10,2014-02-12 03:45:00,
2014-02-11 22:00:00,32.7,26.0,30.25,NE,48,0.0,-999.0,75,-99.99,,,0.01,weatherlink.com 1.10,2014-02-12 04:00:00,
2014-02-11 22:15:00,32.8,26.0,30.24,ENE,65,0.0,-999.0,76,-99.99,,,0.01,weatherlink.com 1.10,2014-02-12 04:15:00,
2014-02-11 22:30:00,32.7,25.0,30.25,ENE,69,0.0,-999.0,74,-99.99,,,0.01,weatherlink.com 1.10,2014-02-12 04:30:00,
2014-02-11 22:45:00,32.8,25.0,30.25,ENE,75,2.0,-999.0,73,-99.99,,,0.01,weatherlink.com 1.10,2014-02-12 04:45:00,
2014-02-11 23:00:00,32.7,25.0,30.24,ENE,63,0.0,-999.0,73,-99.99,,,0.01,weatherlink.com 1.10,2014-02-12 05:00:00,
2014-02-11 23:15:00,32.7,25.0,30.25,ENE,61,0.0,-999.0,73,-99.99,,,0.01,weatherlink.com 1.10,2014-02-12 05:15:00,
2014-02-11 23:30:00,32.8,25.0,30.25,ENE,61,0.0,-999.0,73,-99.99,,,0.01,weatherlink.com 1.10,2014-02-12 05:30:00,
2014-02-11 23:45:00,32.9,25.0,30.25,ENE,61,0.0,-999.0,73,-99.99,,,0.01,weatherlink.com 1.10,2014-02-12 05:45:00,